Location: *
(50.8160°S, 176.0219°W)
Time: 22:51:26
(UTC+00:00)

Meteor 1-28 Rocket - Pass Details

Date: 19 May 2026
Orbit: 420 x 428 km, 97.6° (Epoch: 6 June)

Event Time Altitude Azimuth Distance (km) Brightness Sun altitude
Rises 18:04:40 0° 175° (S) 2,448 6.5 -11.6°
Reaches altitude 10° 18:06:51 10° 185° (S) 1,568 5.4 -11.3°
Maximum altitude 18:09:50 31° 248° (WSW) 806 3.6 -10.8°
Drops below altitude 10° 18:12:47 10° 311° (NW) 1,541 5.3 -10.4°
Sets 18:14:54 0° 322° (NW) 2,397 6.4 -10.1°
